Weather History for KLMT - May, 2012

Change the Weather History Date:

Tuesday, May 22, 2012

  Actual Average Record
Temperature  
Mean Temperature 51 °F 52 °F  
Max Temperature 62 °F 67 °F 87 °F (2001)
Min Temperature 39 °F 38 °F 23 °F (1960)
Degree Days  
Heating Degree Days 14 13  
Month to date heating degree days 283 332  
Since 1 July heating degree days 6426 6651  
Cooling Degree Days 0 0  
Month to date cooling degree days 1 0  
Year to date cooling degree days 1 0  
Moisture  
Dew Point 36 °F    
Average Humidity 60    
Maximum Humidity 79    
Minimum Humidity 39    
Precipitation  
Precipitation 0.00 in 0.03 in 0.38 in (1945)
Month to date precipitation 0.07 1.21  
Year to date precipitation 4.60 7.62  
Sea Level Pressure  
Sea Level Pressure 30.00 in    
Wind  
Wind Speed 12 mph (West)    
Max Wind Speed 30 mph    
Max Gust Speed 37 mph    
Visibility 10 miles    
Events      
T = Trace of Precipitation, MM = Missing Value Source: NWS Daily Summary

Daily Weather History Graph

Daily Weather History Graph

Search for Another Location

Airport or City:

Trip Planner

Search our weather history database for the weather conditions in past years. The results will help you decide how hot, cold, wet, or windy it might be!

Date:

Astronomy

May. 22, 2012 Rise Set
Actual Time 5:39 AM PDT 8:28 PM PDT
Civil Twilight 5:06 AM PDT 9:01 PM PDT
Nautical Twilight 4:25 AM PDT 9:43 PM PDT
Astronomical Twilight 3:37 AM PDT 10:31 PM PDT
Moon 6:53 AM PDT 10:10 PM PDT
Length of Visible Light 15h 55m
Length of Day
14h 49m
Waxing Crescent, 3% of the Moon is Illuminated
May 22
Waxing Crescent
May 28
First Quarter
Jun 4
Full
Jun 11
Last Quarter
Jun 19
New

Hourly Weather History & Observations

Time (PDT) Temp. Windchill Dew Point Humidity Pressure Visibility Wind Dir Wind Speed Gust Speed Precip Events Conditions
12:53 AM 48.9 °F - 39.9 °F 71% 29.96 in 10.0 mi West 12.7 mph - N/A   Clear
1:53 AM 46.0 °F 42.5 °F 39.0 °F 76% 29.97 in 10.0 mi West 6.9 mph - N/A   Clear
2:53 AM 46.9 °F - 37.9 °F 71% 29.97 in 10.0 mi West 15.0 mph - N/A   Clear
3:53 AM 46.9 °F - 36.0 °F 66% 29.97 in 10.0 mi WSW 4.6 mph - N/A   Partly Cloudy
4:53 AM 41.0 °F - 36.0 °F 82% 30.00 in 10.0 mi Calm Calm - N/A   Partly Cloudy
5:53 AM 46.0 °F - 37.9 °F 73% 29.99 in 10.0 mi Calm Calm - N/A   Overcast
6:00 AM 46.4 °F 44.3 °F 37.4 °F 71% 30.05 in 10.0 mi South 4.6 mph - N/A   Mostly Cloudy
6:53 AM 46.9 °F - 37.9 °F 71% 30.00 in 10.0 mi West 9.2 mph - N/A   Mostly Cloudy
7:53 AM 48.0 °F - 37.9 °F 68% 30.02 in 10.0 mi West 4.6 mph - N/A   Mostly Cloudy
8:53 AM 50.0 °F - 36.0 °F 59% 30.04 in 10.0 mi Variable 4.6 mph - N/A   Mostly Cloudy
9:53 AM 51.1 °F - 33.1 °F 50% 30.03 in 10.0 mi WSW 8.1 mph - N/A   Mostly Cloudy
10:53 AM 54.0 °F - 34.0 °F 47% 30.02 in 10.0 mi WSW 10.4 mph 19.6 mph N/A   Mostly Cloudy
11:53 AM 59.0 °F - 35.1 °F 41% 30.00 in 10.0 mi WSW 16.1 mph 21.9 mph N/A   Mostly Cloudy
12:53 PM 60.1 °F - 36.0 °F 41% 29.99 in 10.0 mi WSW 18.4 mph 25.3 mph N/A   Overcast
1:53 PM 59.0 °F - 35.1 °F 41% 29.99 in 10.0 mi West 20.7 mph 26.5 mph N/A   Mostly Cloudy
2:53 PM 60.1 °F - 36.0 °F 41% 29.99 in 10.0 mi West 16.1 mph 28.8 mph N/A   Mostly Cloudy
3:53 PM 60.1 °F - 37.0 °F 42% 29.99 in 10.0 mi WSW 25.3 mph 29.9 mph N/A   Mostly Cloudy
4:53 PM 55.9 °F - 35.1 °F 45% 30.01 in 10.0 mi WNW 18.4 mph 24.2 mph N/A   Mostly Cloudy
5:53 PM 57.9 °F - 35.1 °F 42% 30.01 in 10.0 mi WNW 21.9 mph 28.8 mph N/A   Scattered Clouds
6:53 PM 54.0 °F - 34.0 °F 47% 30.01 in 10.0 mi West 15.0 mph 23.0 mph N/A   Scattered Clouds
7:53 PM 50.0 °F - 35.1 °F 57% 29.99 in 10.0 mi West 26.5 mph 35.7 mph N/A   Scattered Clouds
8:53 PM 46.9 °F - 36.0 °F 66% 30.02 in 10.0 mi WNW 11.5 mph - N/A   Scattered Clouds
9:53 PM 44.1 °F 37.1 °F 36.0 °F 73% 30.02 in 7.0 mi WNW 15.0 mph - N/A   Scattered Clouds
10:53 PM 44.1 °F 38.1 °F 34.0 °F 68% 30.02 in 10.0 mi West 11.5 mph - N/A   Clear
11:53 PM 41.0 °F 38.0 °F 35.1 °F 79% 30.01 in 10.0 mi WSW 4.6 mph - N/A   Clear